EW6086 Weather Reports


Display with metric or nautical units.
time (UTC)temp
F
wind
direction
speed
MPH
gust
MPH
rain 1hr
in
rain 24hr
in
rain mn
in
humidity
%
barometer
mb
20220810075645 84 90 0.0 4.0 0.00 0.00 0.00 84 1015.8
20220810075136 84 90 0.0 5.0 0.00 0.00 0.00 84 1015.7
20220810074123 84 90 0.0 2.0 0.00 0.00 0.00 84 1015.8
20220810073618 84 90 0.0 0.0 0.00 0.00 0.00 83 1015.8
20220810072841 84 90 0.0 0.0 0.00 0.00 0.00 83 1015.8
20220810070817 84 90 0.0 2.0 0.00 0.00 0.00 83 1015.8
20220810070312 84 90 1.0 8.0 0.00 0.00 0.00 83 1015.7
20220810065259 84 90 0.0 1.0 0.00 0.00 0.00 84 1015.7
20220810065023 84 90 0.0 4.0 0.00 0.00 0.00 84 1015.6
20220810064517 85 90 0.0 4.0 0.00 0.00 0.00 84 1015.6
20220810064019 85 90 1.0 5.0 0.00 0.00 0.00 84 1015.5
20220810063243 85 90 1.0 5.0 0.00 0.00 0.00 83 1015.5
20220810062743 85 90 1.0 5.0 0.00 0.00 0.00 84 1015.5
20220810062242 85 90 2.0 8.0 0.00 0.00 0.00 84 1015.6
20220810062013 85 90 2.0 8.0 0.00 0.00 0.00 83 1015.7
20220810061247 85 90 1.0 6.0 0.00 0.00 0.00 84 1015.7
20220810061026 85 90 1.0 5.0 0.00 0.00 0.00 84 1015.6
20220810060524 85 90 1.0 5.0 0.00 0.00 0.00 84 1015.6
20220810060012 85 90 3.0 8.0 0.00 0.00 0.00 85 1015.6
20220810055237 85 90 3.0 8.0 0.00 0.00 0.00 84 1015.5
20220810054242 85 90 2.0 8.0 0.00 0.00 0.00 85 1015.5
20220810054008 85 90 1.0 6.0 0.00 0.00 0.00 85 1015.6
20220810051737 85 90 1.0 6.0 0.00 0.00 0.00 82 1015.7
20220810051239 85 90 1.0 5.0 0.00 0.00 0.00 83 1015.7
20220810050738 85 90 0.0 4.0 0.00 0.00 0.00 83 1015.8
20220810050506 85 90 0.0 5.0 0.00 0.00 0.00 83 1015.9
20220810050006 85 90 1.0 6.0 0.00 0.00 0.06 83 1015.8
20220810045507 85 90 1.0 6.0 0.00 0.00 0.06 82 1015.8
20220810045007 85 90 2.0 6.0 0.00 0.00 0.06 82 1015.8
20220810044507 85 90 1.0 6.0 0.00 0.00 0.06 82 1015.9
20220810043732 85 90 1.0 5.0 0.00 0.00 0.06 83 1015.9
20220810043231 85 90 1.0 6.0 0.00 0.00 0.06 83 1016.0
20220810043006 85 90 1.0 6.0 0.00 0.00 0.06 84 1016.0
20220810042230 85 90 1.0 8.0 0.00 0.00 0.06 85 1015.9
20220810041730 85 90 1.0 8.0 0.00 0.00 0.06 85 1015.9
20220810041502 85 90 1.0 8.0 0.00 0.00 0.06 85 1016.0
20220810041001 85 90 1.0 8.0 0.00 0.00 0.06 85 1016.0
20220810040230 85 90 2.0 8.0 0.00 0.00 0.06 85 1016.0
20220810035732 85 90 2.0 9.0 0.00 0.00 0.06 85 1016.0
20220810035501 85 90 2.0 9.0 0.00 0.00 0.06 85 1016.0
20220810034232 85 90 1.0 5.0 0.00 0.00 0.06 85 1015.8
20220810034003 85 148 1.0 5.0 0.00 0.00 0.06 85 1015.7
20220810033230 85 90 1.0 5.0 0.00 0.00 0.06 85 1015.8
20220810032728 85 90 1.0 8.0 0.00 0.00 0.06 84 1015.6
20220810032228 85 90 2.0 8.0 0.00 0.00 0.06 84 1015.6
20220810031957 85 90 2.0 6.0 0.00 0.00 0.06 84 1015.6
20220810031226 85 90 1.0 8.0 0.00 0.00 0.06 84 1015.5
20220810030226 85 90 1.0 6.0 0.00 0.00 0.06 84 1015.3
20220810025724 85 90 1.0 5.0 0.00 0.00 0.06 84 1015.2
20220810025450 85 90 1.0 6.0 0.00 0.00 0.06 84 1014.9
20220810024715 85 90 1.0 6.0 0.00 0.00 0.06 84 1014.8
20220810023214 85 90 2.0 8.0 0.00 0.00 0.06 82 1014.7
20220810022942 85 90 2.0 8.0 0.00 0.00 0.06 82 1014.7
20220810022211 85 90 1.0 6.0 0.00 0.00 0.06 81 1014.5
20220810021943 85 90 2.0 9.0 0.00 0.00 0.06 81 1014.5
20220810021211 85 90 2.0 9.0 0.00 0.00 0.06 81 1014.3
20220810020212 85 90 2.0 5.0 0.00 0.00 0.06 82 1014.3
20220810015441 85 176 2.0 8.0 0.00 0.00 0.06 82 1014.4
20220810013709 85 90 3.0 8.0 0.00 0.00 0.06 81 1014.2
20220810013210 85 90 3.0 9.0 0.00 0.00 0.06 81 1014.2
20220810012940 85 90 4.0 9.0 0.00 0.00 0.06 82 1014.2
20220810011934 85 90 4.0 9.0 0.00 0.00 0.06 81 1014.0
20220810011157 86 90 4.0 9.0 0.00 0.00 0.06 81 1014.1
20220810010651 86 90 5.0 9.0 0.00 0.00 0.06 81 1014.1
20220810005639 86 90 4.0 10.0 0.00 0.00 0.06 81 1014.1
20220810005404 86 90 5.0 10.0 0.00 0.00 0.06 81 1014.0
20220810004627 86 90 6.0 10.0 0.00 0.00 0.06 81 1014.0
20220810004121 86 90 6.0 9.0 0.00 0.00 0.06 81 1014.0
20220810003353 87 90 4.0 10.0 0.00 0.00 0.06 81 1013.9
20220810002603 87 90 5.0 10.0 0.00 0.00 0.06 80 1014.0
20220810002057 87 90 5.0 10.0 0.00 0.00 0.06 79 1014.0
20220810001821 87 90 4.0 9.0 0.00 0.00 0.06 78 1014.0
20220810001045 87 90 4.0 8.0 0.00 0.00 0.06 79 1014.0
20220810000045 87 90 5.0 10.0 0.00 0.00 0.06 78 1014.0
20220809235526 87 90 5.0 10.0 0.00 0.00 0.06 78 1014.0
20220809235021 87 90 6.0 10.0 0.00 0.00 0.06 78 1014.0
20220809234746 87 90 7.0 11.0 0.00 0.00 0.06 78 1014.0
20220809233503 88 90 6.0 10.0 0.00 0.00 0.06 77 1013.9
20220809232217 88 90 6.0 10.0 0.00 0.00 0.06 75 1014.1
20220809231438 88 90 5.0 10.0 0.00 0.00 0.06 73 1014.2
20220809230935 88 90 5.0 10.0 0.00 0.00 0.06 74 1014.2
20220809230429 88 90 5.0 10.0 0.00 0.00 0.06 73 1014.2
20220809225415 89 90 6.0 10.0 0.00 0.00 0.06 74 1014.3
20220809224909 88 90 5.0 10.0 0.00 0.00 0.06 73 1014.2
20220809224405 89 90 5.0 10.0 0.00 0.00 0.06 74 1014.2
20220809224129 89 90 6.0 10.0 0.00 0.00 0.06 73 1014.2
20220809223351 89 90 6.0 10.0 0.00 0.00 0.06 74 1014.2
20220809222845 89 90 5.0 10.0 0.00 0.00 0.06 74 1014.2
20220809222338 89 90 6.0 10.0 0.00 0.00 0.06 72 1014.1
20220809222104 89 90 6.0 10.0 0.00 0.00 0.06 74 1014.0
20220809221600 89 90 6.0 10.0 0.00 0.00 0.06 72 1013.9
20220809220821 89 90 6.0 10.0 0.00 0.00 0.06 74 1014.0
20220809220546 89 90 6.0 10.0 0.00 0.00 0.06 73 1013.9
20220809214816 89 90 5.0 10.0 0.00 0.00 0.06 72 1014.0
20220809213045 89 90 6.0 10.0 0.00 0.00 0.06 73 1014.1
20220809212315 90 90 7.0 11.0 0.00 0.00 0.06 72 1014.3
20220809211815 89 90 6.0 11.0 0.00 0.00 0.06 72 1014.3
20220809210326 89 90 6.0 10.0 0.00 0.00 0.06 74 1014.4
20220809205814 89 90 6.0 10.0 0.00 0.00 0.06 74 1014.6
20220809205546 89 90 6.0 10.0 0.00 0.00 0.06 74 1014.7
20220809204812 89 90 6.0 10.0 0.00 0.00 0.06 74 1014.8
20220809204314 89 90 5.0 9.0 0.00 0.00 0.06 75 1014.8
20220809203809 89 90 6.0 9.0 0.00 0.00 0.06 75 1014.9
20220809203310 89 90 6.0 9.0 0.00 0.00 0.06 74 1015.0
20220809202309 89 90 6.0 10.0 0.00 0.00 0.06 72 1015.1
20220809201812 90 90 5.0 9.0 0.00 0.00 0.06 71 1015.1
20220809201312 90 90 5.0 9.0 0.00 0.00 0.06 71 1015.1
20220809200810 89 90 5.0 9.0 0.00 0.00 0.06 71 1015.2
20220809200323 90 90 5.0 9.0 0.00 0.00 0.06 69 1015.2
20220809195810 90 90 4.0 9.0 0.00 0.00 0.06 71 1015.3
20220809195306 90 90 4.0 9.0 0.00 0.00 0.06 72 1015.5
20220809194806 90 90 5.0 9.0 0.00 0.00 0.06 71 1015.6
20220809194307 90 90 5.0 10.0 0.00 0.00 0.06 72 1015.6
20220809193806 90 90 4.0 10.0 0.00 0.00 0.06 72 1015.5
20220809193305 90 90 5.0 9.0 0.00 0.00 0.06 71 1015.6
20220809192805 90 90 4.0 9.0 0.00 0.00 0.06 71 1015.7
20220809192305 90 90 4.0 8.0 0.00 0.00 0.06 71 1015.7
20220809191807 89 90 4.0 9.0 0.00 0.00 0.06 71 1015.8
20220809191307 90 90 5.0 9.0 0.00 0.00 0.06 71 1015.9
20220809190806 89 90 6.0 9.0 0.00 0.00 0.06 74 1015.9
20220809190306 89 90 5.0 9.0 0.00 0.00 0.06 74 1015.9
20220809185803 89 90 4.0 9.0 0.00 0.00 0.06 74 1016.1
20220809185305 89 90 4.0 9.0 0.00 0.00 0.06 73 1016.1
20220809184803 89 90 5.0 9.0 0.00 0.00 0.06 75 1016.1
20220809184304 89 90 5.0 9.0 0.00 0.00 0.06 74 1016.1
20220809183805 89 90 4.0 9.0 0.00 0.00 0.06 72 1016.2
20220809183302 90 90 4.0 9.0 0.00 0.00 0.06 73 1016.2
20220809182800 90 90 4.0 9.0 0.00 0.00 0.06 74 1016.3
20220809182259 90 90 3.0 9.0 0.00 0.00 0.06 74 1016.3
20220809181801 89 90 3.0 9.0 0.00 0.00 0.06 74 1016.5
20220809181300 89 90 3.0 9.0 0.00 0.00 0.06 76 1016.6
20220809180811 89 90 3.0 8.0 0.00 0.00 0.06 75 1016.7
20220809180300 89 90 3.0 8.0 0.00 0.00 0.06 75 1016.8
20220809175742 89 90 4.0 8.0 0.00 0.00 0.06 76 1016.9
20220809175236 89 90 3.0 9.0 0.00 0.00 0.06 75 1016.9
20220809174730 89 90 2.0 9.0 0.00 0.00 0.06 74 1017.0
20220809174224 89 90 1.0 8.0 0.00 0.00 0.06 76 1017.1
20220809173443 89 161 0.0 1.0 0.00 0.00 0.06 77 1017.1
20220809172705 88 90 0.0 0.0 0.00 0.00 0.06 81 1017.1
20220809172159 87 90 0.0 0.0 0.00 0.00 0.06 81 1017.1
20220809171654 87 90 0.0 1.0 0.00 0.00 0.06 82 1017.4
20220809171148 87 90 0.0 1.0 0.00 0.00 0.06 83 1017.4
20220809170913 85 90 0.0 2.0 0.00 0.00 0.06 83 1017.5
20220809170419 84 90 0.0 2.0 0.00 0.00 0.06 87 1017.5
20220809165901 83 90 0.0 0.0 0.00 0.00 0.06 89 1017.6
20220809165123 82 90 0.0 0.0 0.00 0.00 0.06 89 1017.8
20220809164617 81 90 0.0 4.0 0.00 0.00 0.06 89 1017.8
20220809164112 81 90 1.0 5.0 0.00 0.00 0.06 86 1017.8
20220809163605 80 90 2.0 6.0 0.00 0.00 0.06 85 1017.8
20220809163100 82 90 3.0 8.0 0.00 0.00 0.06 86 1017.7
20220809162553 82 90 3.0 8.0 0.00 0.00 0.06 85 1017.6
20220809162048 84 90 3.0 8.0 0.00 0.00 0.06 86 1017.6
20220809161543 85 90 2.0 6.0 0.00 0.00 0.06 84 1017.6
20220809161037 86 90 1.0 4.0 0.00 0.00 0.06 86 1017.8
20220809160538 85 299 1.0 2.0 0.00 0.00 0.06 87 1017.6
20220809155641 83 90 0.0 4.0 0.01 0.06 0.06 88 1017.3
20220809155138 83 90 0.0 4.0 0.01 0.06 0.06 88 1017.5
20220809154630 83 90 1.0 8.0 0.01 0.06 0.06 89 1017.5
20220809154123 83 90 1.0 8.0 0.01 0.06 0.06 87 1017.3
20220809153618 84 90 0.0 5.0 0.01 0.06 0.06 89 1017.2
20220809152605 84 90 0.0 5.0 0.02 0.06 0.06 87 1017.2
20220809152100 84 90 0.0 5.0 0.02 0.06 0.06 86 1017.2
20220809151553 84 284 0.0 0.0 0.03 0.06 0.06 87 1017.1
20220809151048 84 284 0.0 0.0 0.03 0.06 0.06 88 1017.2
20220809150542 84 284 0.0 0.0 0.03 0.06 0.06 87 1017.1
20220809150048 84 284 0.0 0.0 0.02 0.05 0.05 87 1017.1
20220809145530 84 284 0.0 0.0 0.02 0.05 0.05 87 1017.0
20220809145024 84 284 0.0 0.0 0.02 0.05 0.05 87 1017.1
20220809144517 84 284 0.0 0.0 0.02 0.05 0.05 86 1017.1
20220809144012 84 284 0.0 0.0 0.02 0.05 0.05 87 1017.0
20220809143505 84 284 0.0 0.0 0.02 0.05 0.05 86 1017.0
20220809143000 85 284 0.0 0.0 0.02 0.05 0.05 85 1016.9
20220809142453 85 284 0.0 2.0 0.01 0.04 0.04 85 1016.9
20220809141948 85 284 0.0 2.0 0.00 0.03 0.03 84 1016.8
20220809141454 85 284 0.0 0.0 0.00 0.03 0.03 84 1016.8
20220809140936 85 282 0.0 0.0 0.00 0.03 0.03 85 1016.8
20220809140442 85 281 0.0 0.0 0.00 0.03 0.03 84 1016.8
20220809135924 85 282 0.0 1.0 0.00 0.03 0.03 84 1016.8
20220809135418 84 283 0.0 1.0 0.00 0.03 0.03 84 1016.8
20220809134911 85 284 0.0 1.0 0.00 0.03 0.03 85 1016.8
20220809134405 84 288 0.0 2.0 0.00 0.03 0.03 89 1016.8
20220809133859 84 261 0.0 2.0 0.00 0.03 0.03 91 1016.7
20220809133354 84 155 0.0 0.0 0.00 0.03 0.03 92 1016.7
20220809132847 84 155 0.0 0.0 0.00 0.03 0.03 93 1016.6
20220809132342 83 155 0.0 0.0 0.00 0.03 0.03 93 1016.5
20220809131835 83 154 0.0 0.0 0.00 0.03 0.03 93 1016.4
20220809131330 83 154 0.0 0.0 0.00 0.03 0.03 93 1016.3
20220809130823 83 156 0.0 0.0 0.00 0.03 0.03 93 1016.3
20220809130317 83 90 0.0 0.0 0.00 0.03 0.03 94 1016.3
20220809125811 83 90 0.0 0.0 0.00 0.03 0.03 93 1016.3
20220809125306 83 90 0.0 0.0 0.00 0.03 0.03 94 1016.2
20220809124759 82 90 0.0 0.0 0.00 0.03 0.03 94 1016.2
20220809124253 82 90 0.0 0.0 0.00 0.03 0.03 93 1016.1
20220809123749 82 157 0.0 0.0 0.00 0.03 0.03 93 1016.0
20220809123244 82 90 0.0 0.0 0.00 0.03 0.03 93 1016.0
20220809122745 82 157 0.0 0.0 0.00 0.03 0.03 93 1016.0
20220809122244 81 90 0.0 0.0 0.01 0.03 0.03 93 1015.8
20220809121742 81 90 0.0 0.0 0.01 0.03 0.03 93 1015.8
20220809121239 81 90 0.0 0.0 0.01 0.03 0.03 93 1015.6
20220809120743 81 90 0.0 0.0 0.02 0.03 0.03 93 1015.6
20220809120238 81 90 0.0 0.0 0.03 0.03 0.03 93 1015.5
20220809115738 81 90 0.0 0.0 0.03 0.03 0.03 93 1015.4
20220809115241 81 90 0.0 0.0 0.03 0.03 0.03 93 1015.3
20220809114738 81 90 0.0 0.0 0.03 0.03 0.03 93 1015.4
20220809114238 81 90 0.0 0.0 0.03 0.03 0.03 92 1015.3
20220809113738 81 90 0.0 0.0 0.03 0.03 0.03 92 1015.2
20220809113240 81 90 0.0 0.0 0.03 0.03 0.03 92 1015.2
20220809112735 81 90 0.0 0.0 0.03 0.03 0.03 92 1015.3
20220809112234 81 90 0.0 0.0 0.02 0.02 0.02 92 1015.1
20220809111734 81 90 0.0 0.0 0.02 0.02 0.02 92 1015.0
20220809111234 82 90 0.0 0.0 0.02 0.02 0.02 91 1014.9
20220809110736 82 90 0.0 0.0 0.01 0.01 0.02 89 1014.8
20220809110235 83 235 0.0 0.0 0.00 0.00 0.00 88 1014.8
20220809105734 83 235 0.0 0.0 0.00 0.00 0.00 89 1014.7
20220809105236 83 236 0.0 0.0 0.00 0.00 0.00 89 1014.8
20220809104738 83 234 0.0 0.0 0.00 0.00 0.00 89 1014.7
20220809104234 83 234 0.0 0.0 0.00 0.00 0.00 88 1014.7
20220809103737 83 232 0.0 0.0 0.00 0.00 0.00 88 1014.6
20220809103234 83 232 0.0 0.0 0.00 0.00 0.00 87 1014.6
20220809102734 83 230 0.0 0.0 0.00 0.00 0.00 87 1014.6
20220809102234 83 220 0.0 0.0 0.00 0.00 0.00 87 1014.6
20220809101736 84 218 0.0 0.0 0.00 0.00 0.00 87 1014.7
20220809101234 84 90 0.0 0.0 0.00 0.00 0.00 87 1014.7
20220809100737 84 90 0.0 0.0 0.00 0.00 0.00 87 1014.7
20220809100234 84 212 0.0 0.0 0.00 0.00 0.00 86 1014.6
20220809095728 84 213 0.0 0.0 0.00 0.00 0.00 86 1014.6
20220809095222 84 211 0.0 0.0 0.00 0.00 0.00 86 1014.7
20220809094717 84 90 0.0 0.0 0.00 0.00 0.00 86 1014.7
20220809094210 84 90 0.0 0.0 0.00 0.00 0.00 86 1014.6
20220809093704 84 90 0.0 1.0 0.00 0.00 0.00 86 1014.6
20220809093159 84 90 0.0 1.0 0.00 0.00 0.00 86 1014.6
20220809092658 84 90 0.0 0.0 0.00 0.00 0.00 86 1014.5
20220809092157 84 90 0.0 0.0 0.00 0.00 0.00 86 1014.6
20220809091655 84 90 0.0 0.0 0.00 0.00 0.00 86 1014.6
20220809091152 84 90 0.0 1.0 0.00 0.00 0.00 85 1014.7
20220809090650 84 90 0.0 1.0 0.00 0.00 0.00 85 1014.8
20220809090151 84 90 0.0 1.0 0.00 0.00 0.00 85 1014.8
20220809085651 84 90 0.0 1.0 0.00 0.00 0.00 85 1014.8
20220809085150 84 90 0.0 0.0 0.00 0.00 0.00 85 1014.8
20220809084646 84 90 0.0 1.0 0.00 0.00 0.00 85 1014.9
20220809084147 84 90 0.0 1.0 0.00 0.00 0.00 85 1014.9
20220809083647 84 205 0.0 2.0 0.00 0.00 0.00 84 1014.9
20220809083145 84 90 0.0 4.0 0.00 0.00 0.00 84 1015.0
20220809082644 84 90 1.0 4.0 0.00 0.00 0.00 84 1015.0
20220809082142 84 90 0.0 4.0 0.00 0.00 0.00 84 1015.1
20220809081642 84 90 0.0 2.0 0.00 0.00 0.00 84 1015.0
20220809081143 84 90 0.0 4.0 0.00 0.00 0.00 84 1015.1
20220809080641 84 90 0.0 4.0 0.00 0.00 0.00 84 1015.1
20220809080141 84 90 0.0 4.0 0.00 0.00 0.00 84 1015.1